Regional Weather Roundup
Issued by NWS

Home | Current Version | Previous Version | Graphics & Text | Print | Product List | Glossary On
Versions: 1 2 3 4 5 6 7 8 9 10 11 12 13 14 15 16 17 18 19 20 21 22 23 24 25 26 27 28 29 30 31 32 33 34 35 36 37 38 39 40 41 42 43 44 45 46 47 48 49 50
000
ASUS43 KLOT 270307
RWRIL

ILLINOIS REGIONAL WEATHER ROUNDUP
NATIONAL WEATHER SERVICE CHICAGO/ROMEOVILLE IL
1000 PM CDT WED APR 26 2017

NOTE: "FAIR" INDICATES FEW OR NO CLOUDS BELOW 12,000 FEET WITH NO
SIGNIFICANT WEATHER AND/OR OBSTRUCTIONS TO VISIBILITY.

* THESE STATIONS ARE NOT UNDER NWS QUALITY CONTROL. THEY ALSO MAY NOT
  REPORT WEATHER SUCH AS PRECIPITATION OR FOG.

ILZ001-002-007-009-015-016-024-270400-
NORTHWEST ILLINOIS

CITY           SKY/WX    TMP DP  RH WIND       PRES   REMARKS
MOLINE         CLOUDY    50  44  80 NW8       29.50R
STERLING*      CLOUDY    51  48  89 NW6       29.49R
SAVANNA*       CLOUDY    50  44  81 NW10      29.49R
$$

ILZ003-004-008-010-011-017-018-270400-
NORTH CENTRAL ILLINOIS

CITY           SKY/WX    TMP DP  RH WIND       PRES   REMARKS
ROCKFORD       CLOUDY    53  49  86 W6        29.50R
FREEPORT*      CLOUDY    49  47  93 NW5       29.50R
ROCHELLE*      RAIN      51  50  95 NW6       29.48S
DE KALB*       LGT RAIN  53  52  94 NW5       29.48S
PERU*          DRIZZLE   52  50  92 NW8       29.48S
$$

ILZ005-006-012>014-019>023-270400-
NORTHEAST ILLINOIS

CITY           SKY/WX    TMP DP  RH WIND       PRES   REMARKS
CHICAGO-OHARE  CLOUDY    62  56  80 SW3       29.46R
CHICAGO-MIDWAY LGT RAIN  65  60  84 SE3       29.46S
AURORA         LGT RAIN  57  55  93 NW5       29.47S FOG
LANSING*       RAIN      63  61  95 S3        29.49S
JOLIET*        RAIN      61  61  98 CALM      29.46F
WAUKEGAN       LGT RAIN  60  55  83 SW6       29.46R
DUPAGE AIRPORT LGT RAIN  59  57  93 SW3       29.47R
KANKAKEE*      LGT RAIN  61  59  94 SE5       29.47F
WHEELING       LGT RAIN  62  59  90 CALM      29.47R
MORRIS*        LGT RAIN  59  57  92 CALM      29.45F
ROMEOVILLE*    RAIN      60  60 100 CALM      29.46F
NORTHERLY ISL    N/A     65  57  75 S7          N/A
$$

LMZ740>746-270400-
SOUTHERN LAKE MICHIGAN

STATION/POSITION SKY/WX   TEMP    WIND        PRES    VSBY  WAVE
                          AIR SEA DIR/SP/G                  HT/PER
                          (F)     (DEG/KT/KT) (MB)    (MI)  (FT/S)
SOUTHERN BUOY              51 42  240/  4/  4  997.7          1
HARRISON CRIB              66     210/  5/  5   N/A
BURNHAM HARBOR             64     150/  3/ 10   N/A
CALUMET HARBOR             64     200/  4/  5  998.2R
BURNS HARBOR               64     250/ 12/ 27  999.7R
MICHIGAN CITY              61     230/ 16/ 18   N/A
MICHIGAN CITY 6N           53 49                N/A           1
ST. JOSEPH                 51 49  300/  6/  8  998.8          1/ 3
$$

ILZ025>027-034>036-040-047-049-050-058-095>099-270400-
WEST-CENTRAL ILLINOIS

CITY           SKY/WX    TMP DP  RH WIND       PRES   REMARKS
QUINCY         LGT RAIN  48  47  96 NW13      29.50S FOG
GALESBURG*     DRIZZLE   48  46  91 N8        29.48S
MACOMB*        LGT RAIN  48  47  97 N9        29.50S
JACKSONVILLE*  RAIN      51  51  97 NW8       29.47S
PITTSFIELD*    LGT RAIN  49  49  97 N7        29.48S
$$

ILZ028>032-037-038-041>044-048-051>054-059>061-270400-
CENTRAL ILLINOIS

CITY           SKY/WX    TMP DP  RH WIND       PRES   REMARKS
PONTIAC        LGT RAIN  61  61  98 E6        29.47F
BLOOMINGTON    RAIN      60  59  96 SE13      29.48S FOG
DECATUR        LGT RAIN  60  60 100 SE15G25   29.47F
PEORIA         RAIN      51  51 100 N6        29.49R FOG
LACON*         RAIN      52  51  95 NW6       29.48R
LINCOLN*       HVY RAIN  61  61 100 S5        29.47S
SPRINGFIELD    RAIN      62  59  90 SE9       29.46F FOG
TAYLORVILLE    LGT RAIN  59  58  96 SE13      29.47S
$$

ILZ033-039-045-046-055>057-062-063-270400-
EAST-CENTRAL ILLINOIS

CITY           SKY/WX    TMP DP  RH WIND       PRES   REMARKS
CHAMPAIGN      LGT RAIN  60  58  92 S13       29.52R
RANTOUL*       RAIN      62  61  97 S10       29.51R
MATTOON        LGT RAIN  59  59 100 S9        29.52R
PARIS*         LGT RAIN  60  59  99 W9        29.54R
$$

ILZ079-100>102-270400-
SOUTHWEST ILLINOIS

CITY           SKY/WX    TMP DP  RH WIND       PRES   REMARKS
ALTON          RAIN      59  57  94 SE16G23   29.44S
BELLEVILLE     LGT RAIN  59  59 100 E16       29.45F
CAHOKIA*       LGT RAIN  60  58  92 SE13      29.44R
SPARTA*        RAIN      59  57  94 SE12      29.52R
$$

ILZ064>066-069>071-074>076-080>082-084>086-088>090-092>094-270400-
SOUTH-CENTRAL ILLINOIS

CITY           SKY/WX    TMP DP  RH WIND       PRES   REMARKS
CARBONDALE     LGT RAIN  59  59 100 SE14      29.56R
CAIRO*         TSTM      58  58  99 E5        29.57S
EFFINGHAM*     HVY RAIN  59  59 100 SE7       29.55F
MARION         RAIN      59  59 100 SE6       29.58R
MT. VERNON     RAIN      59  58  96 SE7       29.57R
CENTRALIA*     LGT RAIN  60  60  99 SE9       29.53R
SALEM*         RAIN      61  59  93 SE7       29.53R
METROPOLIS*    CLOUDY    59  58  98 CALM      29.56F
$$

ILZ067-068-072-073-078-083-087-091-270400-
SOUTHEAST ILLINOIS

CITY           SKY/WX    TMP DP  RH WIND       PRES   REMARKS
LAWRENCEVILLE  LGT RAIN  61  60  97 W7        29.56R
FLORA*         LGT RAIN  60  59  96 CALM      29.53F
FAIRFIELD*     HVY RAIN  59  59 100 SW5       29.58R
HARRISBURG*    TSTM      59  58  98 S6        29.59S
ROBINSON*      RAIN      59  59  97 W8        29.56F
CARMI*         RAIN      58  58 100 SW6       29.59R
$$

ABBREVIATIONS USED IN REMARKS
   TC - TEMPERATURE IN CELSIUS
  WCI - WIND CHILL INDEX
   HX - HEAT INDEX
  VSB - VISIBILITY
$$





USA.gov is the U.S. government's official web portal to all federal, state and local government web resources and services.